EUTELSAT 25B

Last updated on May 21, 2019, 3:10 a.m. UTC

1 39233U 13044A   19139.89077310  .00000133  00000-0  00000-0 0  9997
2 39233   0.0522  13.6916 0001941  42.4034 167.3204  1.00271052 20710
UTC
Height (km)
Latitude
Longitude
Inclination
Orbital Period
UTC large
Height (km)
Speed (km/s)
/
Latitude / Longitude
Inclination (degrees)
Orbital Period (minutes)
Azimuth
Elevation
Range (km)
Doppler Factor
iOS Compass Heading
iOS Angle

Next 30 passes for location: Hong Kong

Rise time Rise Azimuth (degrees) Set time Set Azimuth (degrees) Duration Max altitude (degrees)

No matching passes for this satellites